This is the latest recevied weather packets stored in our database for station/object WE1C. If no packets are shown the sender has not sent any weather packets the latest 10 day(s).
| Time | Temp. | Humidity | Pressure | Rain* | Wind** | Luminosity | Snow |
|---|---|---|---|---|---|---|---|
| 1778073304 | 18.33° C | 73% | 1038.7 hPa | 0 mm | - | 399 W/m² | - |
| 1778073000 | 17.78° C | 73% | 1039 hPa | 0 mm | - | 332 W/m² | - |
| 1778072697 | 17.78° C | 74% | 1039 hPa | 0 mm | - | 343 W/m² | - |
| 1778072394 | 17.22° C | 75% | 1039.1 hPa | 0 mm | - | 436 W/m² | - |
| 1778072093 | 17.22° C | 76% | 1039 hPa | 0 mm | - | 215 W/m² | - |
| 1778071790 | 17.22° C | 76% | 1038.9 hPa | 0 mm | - | 197 W/m² | - |
| 1778071488 | 17.22° C | 76% | 1038.8 hPa | 0 mm | - | 196 W/m² | - |
| 1778071185 | 16.67° C | 77% | 1039.1 hPa | 0 mm | - | 184 W/m² | - |
| 1778070883 | 16.67° C | 77% | 1038.7 hPa | 0 mm | - | 177 W/m² | - |
| 1778070580 | 16.67° C | 76% | 1039.1 hPa | 0 mm | - | 164 W/m² | - |
| 1778070277 | 16.67° C | 76% | 1038.8 hPa | 0 mm | - | 206 W/m² | - |
| 1778069976 | 16.67° C | 77% | 1038.7 hPa | 0 mm | - | 285 W/m² | - |
| 1778069672 | 16.11° C | 78% | 1038.8 hPa | 0 mm | - | 311 W/m² | - |
| 1778069369 | 16.67° C | 78% | 1039 hPa | 0 mm | - | 151 W/m² | - |
| 1778069067 | 16.11° C | 78% | 1038.9 hPa | 0 mm | - | 204 W/m² | - |
| 1778068764 | 16.11° C | 78% | 1038.8 hPa | 0 mm | - | 237 W/m² | - |
| 1778068462 | 16.11° C | 79% | 1039 hPa | 0 mm | - | 245 W/m² | - |
| 1778068160 | 16.11° C | 79% | 1038.8 hPa | 0 mm | - | 141 W/m² | - |
| 1778067857 | 16.11° C | 79% | 1038.8 hPa | 0 mm | - | 169 W/m² | - |
| 1778067556 | 16.11° C | 79% | 1038.9 hPa | 0 mm | - | 220 W/m² | - |
| 1778067253 | 15.56° C | 80% | 1038.8 hPa | 0 mm | - | 223 W/m² | - |
| 1778066949 | 15.56° C | 80% | 1039 hPa | 0 mm | - | 168 W/m² | - |
| 1778066647 | 15° C | 81% | 1039.1 hPa | 0 mm | - | 122 W/m² | - |
| 1778066344 | 15° C | 82% | 1039.1 hPa | 0 mm | - | 89 W/m² | - |
| 1778066042 | 15° C | 82% | 1039.1 hPa | 0 mm | - | 61 W/m² | - |
* Rain latest hour (hover to see other rain measurements)
** Current wind speed in m/s (hover to see current wind gust speed)